This demonstration page uses our WeatherBlox Daily Observations layout. Learn more.

Left ArrowRight Arrow

Hourly Observations for April 17, 2020

Temp ( °F °C ) Dew Point ( °F °C ) Humidity (%) Winds ( mph kmh ) Pressure ( in mb ) Visibility ( mi km ) Precip ( " mm )
12:54 am 00:54 Cloudy 32 0 29 -1.7 88 88 NNE 13 20 30.25 1024 8 12.87472 0 0
1:05 am 01:05 Cloudy 32 0 29 -1.7 88 88 NNE 13 20 30.29 1026 8 12.87472 0 0
1:12 am 01:12 Cloudy 32 0 29 -1.7 88 88 NNE 12 19 30.26 1025 8 12.87472 0 0
1:54 am 01:54 Cloudy 32 0 29 -1.7 88 88 N 13 20 30.26 1025 8 12.87472 0 0
2:54 am 02:54 Cloudy 31 -0.6 29 -1.7 92 92 N 10 17 30.24 1024 8 12.87472 0 0
3:37 am 03:37 Cloudy 31 -0.6 29 -1.7 92 92 N 9 15 30.26 1025 9 14.48406 0 0
3:54 am 03:54 Cloudy 31 -0.6 28 -2.2 89 89 N 8 13 30.23 1024 9 14.48406 0 0
4:11 am 04:11 Cloudy 31 -0.6 28 -2.2 89 89 N 7 11 30.25 1024 10 16.0934 0 0
4:19 am 04:19 Cloudy 31 -0.6 28 -2.2 89 89 N 6 9 30.25 1024 10 16.0934 0 0
4:42 am 04:42 Cloudy 31 -0.6 28 -2.2 89 89 NNW 6 9 30.25 1024 10 16.0934 0 0
4:54 am 04:54 Cloudy 31 -0.6 28 -2.2 89 89 NNW 6 9 30.23 1024 10 16.0934 0 0
5:20 am 05:20 Cloudy 30 -1.1 28 -2.2 92 92 NW 6 9 30.28 1025 10 16.0934 0 0
5:54 am 05:54 Clear 29 -1.7 27 -2.8 92 92 NW 7 11 30.24 1024 9 14.48406 0 0
6:39 am 06:39 Mostly Clear 27 -2.8 25 -3.9 92 92 NNW 9 15 30.28 1026 7 11.26538 0 0
6:51 am 06:51 Mostly Cloudy with Mist and Fog 27 -3 25 -4 93 93 NW 7 11 30.3 1026 2.5 4.02335 0 0
6:54 am 06:54 Mostly Cloudy with Mist and Fog 26 -3.3 25 -3.9 96 96 NW 7 11 30.26 1025 2 3.21868 0 0
7:02 am 07:02 Cloudy with Mist and Fog 26 -3.3 25 -3.9 96 96 WNW 5 7 30.3 1026 1.75 2.816345 0 0
7:20 am 07:20 Cloudy with Mist and Fog 26 -3.3 25 -3.9 96 96 Calm 30.31 1026 2.5 4.02335 0 0
7:29 am 07:29 Cloudy with Mist and Fog 26 -3.3 25 -3.9 96 96 Calm 30.31 1026 3 4.82802 0 0
7:54 am 07:54 Partly Cloudy with Mist and Fog 27 -2.8 25 -3.9 92 92 Calm 30.27 1025 5 8.0467 0 0
8:54 am 08:54 Sunny 28 -2.2 24 -4.4 85 85 W 6 9 30.27 1025 9 14.48406 0 0
9:54 am 09:54 Sunny 29 -1.7 26 -3.3 89 89 SW 5 7 30.26 1025 10 16.0934 0 0
10:54 am 10:54 Sunny 29 -1.7 26 -3.3 89 89 SSW 8 13 30.26 1025 10 16.0934 0 0
11:54 am 11:54 Sunny 33 0.6 27 -2.8 78 78 W 7 11 30.25 1025 10 16.0934 0 0
12:54 pm 12:54 Sunny 36 2.2 28 -2.2 73 73 WSW 9 15 30.24 1024 10 16.0934 0 0
1:54 pm 13:54 Sunny 38 3.3 29 -1.7 70 70 SW 10 17 30.22 1023 10 16.0934 0 0
2:54 pm 14:54 Sunny 41 5 30 -1.1 65 65 WSW 10 17 30.19 1022 10 16.0934 0 0
3:54 pm 15:54 Sunny 45 7.2 32 0 61 61 W 13 20 30.16 1021 10 16.0934 0 0
4:54 pm 16:54 Sunny 48 8.9 25 -3.9 41 41 W 14 22 30.14 1021 10 16.0934 0 0
5:54 pm 17:54 Sunny 49 9.4 23 -5 36 36 W 14 22 30.13 1020 10 16.0934 0 0
6:54 pm 18:54 Sunny 48 8.9 23 -5 37 37 W 9 15 30.12 1020 10 16.0934 0 0
7:54 pm 19:54 Sunny 45 7.2 28 -2.2 52 52 SSW 6 9 30.1 1019 10 16.0934 0 0
8:54 pm 20:54 Clear 37 2.8 28 -2.2 70 70 SSE 6 9 30.09 1019 10 16.0934 0 0
9:54 pm 21:54 Clear 35 1.7 25 -3.9 67 67 SSE 7 11 30.09 1019 10 16.0934 0 0
10:54 pm 22:54 Clear 33 0.6 25 -3.9 72 72 S 8 13 30.09 1019 10 16.0934 0 0
11:54 pm 23:54 Clear 34 1.1 26 -3.3 73 73 S 9 15 30.07 1018 10 16.0934 0 0

Powered by AerisWeather